EW0610 Weather Reports


Display with metric or nautical units.
time (UTC)temp
F
wind
direction
speed
MPH
gust
MPH
rain 1hr
in
rain 24hr
in
rain mn
in
humidity
%
barometer
mb
20220818045145 77 29 0.0 0.0 0.00 0.00 0.00 77 1014.2
20220818044647 77 57 0.0 0.0 0.00 0.00 0.00 78 1014.4
20220818044145 76 91 0.0 0.0 0.00 0.00 0.00 77 1014.4
20220818043651 77 91 0.0 0.0 0.00 0.00 0.00 77 1014.3
20220818043215 77 102 0.0 0.0 0.00 0.00 0.00 77 1014.5
20220818043132 77 102 0.0 0.0 0.00 0.00 0.00 77 1014.5
20220818042650 76 49 0.0 0.0 0.00 0.00 0.00 77 1014.6
20220818042206 76 120 0.0 4.0 0.00 0.00 0.00 78 1014.8
20220818042123 76 120 0.0 4.0 0.00 0.00 0.00 78 1014.8
20220818041730 76 110 0.0 4.0 0.00 0.00 0.00 79 1015.1
20220818041205 77 106 0.0 1.0 0.00 0.00 0.00 78 1014.9
20220818041122 77 106 0.0 1.0 0.00 0.00 0.00 78 1014.9
20220818040642 77 130 0.0 12.0 0.00 0.00 0.00 78 1015.0
20220818040202 77 120 0.0 14.0 0.00 0.00 0.00 77 1015.1
20220818035704 78 102 1.0 14.0 0.00 0.00 0.00 76 1015.2
20220818035224 78 131 1.0 13.0 0.00 0.00 0.00 75 1015.2
20220818035141 78 131 1.0 13.0 0.00 0.00 0.00 75 1015.2
20220818034721 78 148 0.0 15.0 0.00 0.00 0.00 74 1015.2
20220818034151 78 153 5.0 18.0 0.00 0.00 0.00 74 1015.5
20220818033623 79 169 6.0 20.0 0.00 0.00 0.00 72 1015.4
20220818033144 79 185 10.0 20.0 0.00 0.00 0.00 70 1015.6
20220818032704 81 186 13.0 23.0 0.00 0.00 0.00 66 1015.5
20220818032149 83 190 12.0 23.0 0.00 0.00 0.00 62 1015.3
20220818031731 84 220 7.0 18.0 0.00 0.00 0.00 59 1015.0
20220818031649 84 220 7.0 18.0 0.00 0.00 0.00 59 1015.0
20220818031227 86 175 10.0 18.0 0.00 0.00 0.00 56 1014.7
20220818030659 87 110 2.0 18.0 0.00 0.00 0.00 58 1014.1
20220818030143 87 70 9.0 18.0 0.00 0.00 0.00 58 1013.9
20220818025705 87 64 7.0 16.0 0.00 0.00 0.00 58 1013.9
20220818025225 87 76 8.0 23.0 0.00 0.00 0.00 58 1013.8
20220818025143 87 76 8.0 23.0 0.00 0.00 0.00 58 1013.8
20220818024700 87 53 7.0 23.0 0.00 0.00 0.00 57 1013.3
20220818024137 87 36 5.0 21.0 0.00 0.00 0.00 57 1013.2
20220818023633 88 32 13.0 21.0 0.00 0.00 0.00 56 1013.1
20220818023124 88 299 8.0 22.0 0.00 0.00 0.00 56 1012.9
20220818022730 88 67 15.0 23.0 0.00 0.00 0.00 56 1012.6
20220818022145 88 77 9.0 23.0 0.00 0.00 0.00 56 1012.4
20220818021717 89 50 12.0 21.0 0.00 0.00 0.00 56 1012.2
20220818021635 89 50 12.0 21.0 0.00 0.00 0.00 56 1012.2
20220818021126 89 27 10.0 20.0 0.00 0.00 0.00 55 1012.0
20220818020645 90 65 8.0 20.0 0.00 0.00 0.00 55 1011.9
20220818020204 90 69 11.0 20.0 0.00 0.00 0.00 54 1011.9
20220818015627 90 35 10.0 18.0 0.00 0.00 0.00 54 1011.9
20220818015125 91 69 4.0 17.0 0.00 0.00 0.00 53 1011.8
20220818014710 91 41 8.0 17.0 0.00 0.00 0.00 52 1011.8
20220818014152 92 2 4.0 17.0 0.00 0.00 0.00 50 1011.8
20220818013710 92 56 10.0 18.0 0.00 0.00 0.00 49 1011.6
20220818013148 93 69 4.0 18.0 0.00 0.00 0.00 48 1011.6
20220818012653 93 64 0.0 11.0 0.00 0.00 0.00 47 1011.7
20220818012124 93 48 0.0 13.0 0.00 0.00 0.00 46 1011.5
20220818011725 93 41 2.0 15.0 0.00 0.00 0.00 45 1011.5
20220818011643 93 41 2.0 15.0 0.00 0.00 0.00 45 1011.5
20220818011139 94 55 2.0 15.0 0.00 0.00 0.00 46 1011.5
20220818010634 94 40 1.0 12.0 0.00 0.00 0.00 45 1011.4
20220818010148 94 46 0.0 8.0 0.00 0.00 0.00 45 1011.3
20220818005623 95 68 1.0 12.0 0.00 0.00 0.00 44 1011.2
20220818005206 95 56 3.0 12.0 0.00 0.00 0.00 44 1011.2
20220818004706 95 46 1.0 6.0 0.00 0.00 0.00 43 1011.2
20220818004123 95 353 0.0 10.0 0.00 0.00 0.00 43 1011.1
20220818003709 96 26 3.0 10.0 0.00 0.00 0.00 42 1010.9
20220818003627 96 26 3.0 10.0 0.00 0.00 0.00 42 1010.9
20220818003150 96 30 1.0 9.0 0.00 0.00 0.00 42 1011.0
20220818002642 96 24 1.0 10.0 0.00 0.00 0.00 42 1010.9
20220818002205 97 22 2.0 10.0 0.00 0.00 0.00 41 1011.0
20220818001704 97 50 0.0 9.0 0.00 0.00 0.00 41 1011.1
20220818001124 97 65 0.0 9.0 0.00 0.00 0.00 40 1011.2
20220818000644 97 29 1.0 14.0 0.00 0.00 0.00 41 1011.2
20220818000206 97 47 5.0 14.0 0.00 0.00 0.00 40 1011.2
20220817235706 98 346 1.0 10.0 0.00 0.00 0.00 40 1011.2
20220817235141 98 23 0.0 10.0 0.00 0.00 0.00 39 1011.2
20220817234705 98 358 0.0 10.0 0.00 0.00 0.00 38 1011.2
20220817234225 99 39 2.0 11.0 0.00 0.00 0.00 38 1011.0
20220817234143 99 39 2.0 11.0 0.00 0.00 0.00 38 1011.0
20220817233707 99 47 4.0 11.0 0.00 0.00 0.00 37 1010.8
20220817233206 99 55 2.0 10.0 0.00 0.00 0.00 36 1010.8
20220817232647 99 15 0.0 10.0 0.00 0.00 0.00 36 1010.8
20220817232227 99 43 1.0 10.0 0.00 0.00 0.00 36 1010.8
20220817232145 99 43 1.0 10.0 0.00 0.00 0.00 36 1010.8
20220817231700 99 8 1.0 9.0 0.00 0.00 0.00 36 1010.9
20220817231138 99 353 3.0 9.0 0.00 0.00 0.00 36 1011.0
20220817230653 100 1 0.0 5.0 0.00 0.00 0.00 36 1011.0
20220817230209 99 73 0.0 14.0 0.00 0.00 0.00 36 1011.0
20220817225705 99 39 2.0 14.0 0.00 0.00 0.00 37 1011.0
20220817225207 99 50 2.0 13.0 0.00 0.00 0.00 36 1011.1
20220817225124 99 50 2.0 13.0 0.00 0.00 0.00 36 1011.1
20220817224655 99 21 1.0 12.0 0.00 0.00 0.00 36 1011.1
20220817224209 100 45 6.0 12.0 0.00 0.00 0.00 36 1011.1
20220817223724 100 24 4.0 13.0 0.00 0.00 0.00 37 1011.0
20220817223129 99 339 1.0 13.0 0.00 0.00 0.00 36 1011.0
20220817222646 100 354 2.0 11.0 0.00 0.00 0.00 36 1011.0
20220817222123 101 50 5.0 12.0 0.00 0.00 0.00 35 1011.0
20220817221711 101 60 4.0 15.0 0.00 0.00 0.00 34 1011.1
20220817221628 101 60 4.0 15.0 0.00 0.00 0.00 34 1011.1
20220817221207 101 59 3.0 15.0 0.00 0.00 0.00 34 1011.2
20220817220647 101 64 5.0 13.0 0.00 0.00 0.00 35 1011.2
20220817220129 101 37 0.0 7.0 0.00 0.00 0.00 35 1011.2
20220817215716 101 282 0.0 7.0 0.00 0.00 0.00 35 1011.3
20220817215634 101 282 0.0 7.0 0.00 0.00 0.00 35 1011.3
20220817215124 101 346 1.0 4.0 0.00 0.00 0.00 34 1011.3
20220817214707 101 14 0.0 5.0 0.00 0.00 0.00 35 1011.3
20220817214204 100 300 0.0 7.0 0.00 0.00 0.00 37 1011.5
20220817213624 99 50 1.0 7.0 0.00 0.00 0.00 37 1011.5
20220817213209 99 2 0.0 7.0 0.00 0.00 0.00 37 1011.5
20220817213127 99 2 0.0 7.0 0.00 0.00 0.00 37 1011.5
20220817212625 99 45 0.0 9.0 0.00 0.00 0.00 37 1011.4
20220817212132 100 57 0.0 12.0 0.00 0.00 0.00 38 1011.5
20220817211707 99 32 3.0 12.0 0.00 0.00 0.00 37 1011.6
20220817211125 100 49 4.0 12.0 0.00 0.00 0.00 37 1011.6
20220817210628 101 6 5.0 11.0 0.00 0.00 0.00 35 1011.7
20220817210141 101 2 0.0 4.0 0.00 0.00 0.00 33 1011.6
20220817205631 101 36 1.0 7.0 0.00 0.00 0.00 33 1011.6
20220817205215 101 21 1.0 7.0 0.00 0.00 0.00 34 1011.7
20220817204716 102 22 1.0 11.0 0.00 0.00 0.00 34 1011.7
20220817204633 102 22 1.0 11.0 0.00 0.00 0.00 34 1011.7
20220817204124 101 301 2.0 11.0 0.00 0.00 0.00 35 1011.8
20220817203647 100 258 3.0 6.0 0.00 0.00 0.00 35 1011.8
20220817203225 101 347 2.0 7.0 0.00 0.00 0.00 35 1011.9
20220817202649 101 303 2.0 7.0 0.00 0.00 0.00 36 1012.0
20220817202212 101 301 2.0 5.0 0.00 0.00 0.00 37 1011.9
20220817202130 101 301 2.0 5.0 0.00 0.00 0.00 37 1011.9
20220817201708 101 349 1.0 10.0 0.00 0.00 0.00 36 1011.9
20220817201145 100 5 0.0 10.0 0.00 0.00 0.00 37 1012.0
20220817200623 100 33 0.0 4.0 0.00 0.00 0.00 36 1012.1
20220817200213 101 309 0.0 6.0 0.00 0.00 0.00 35 1012.2
20220817200131 101 309 0.0 6.0 0.00 0.00 0.00 35 1012.2
20220817195717 101 333 1.0 7.0 0.00 0.00 0.00 36 1012.2
20220817195635 101 333 1.0 7.0 0.00 0.00 0.00 36 1012.2
20220817195148 100 257 2.0 10.0 0.00 0.00 0.00 36 1012.3
20220817194649 100 295 1.0 10.0 0.00 0.00 0.00 36 1012.4
20220817194119 100 56 0.0 2.0 0.00 0.00 0.00 34 1012.4
20220817193645 101 17 0.0 7.0 0.00 0.00 0.00 35 1012.5
20220817193137 100 3 1.0 9.0 0.00 0.00 0.00 35 1012.6
20220817192657 100 20 3.0 9.0 0.00 0.00 0.00 36 1012.7
20220817192209 100 312 1.0 9.0 0.00 0.00 0.00 36 1012.7
20220817191722 100 338 1.0 5.0 0.00 0.00 0.00 37 1012.7
20220817191640 100 338 1.0 5.0 0.00 0.00 0.00 37 1012.7
20220817191154 98 331 0.0 7.0 0.00 0.00 0.00 38 1012.7
20220817190624 99 27 3.0 7.0 0.00 0.00 0.00 37 1012.9
20220817190151 99 345 0.0 5.0 0.00 0.00 0.00 37 1012.9
20220817185653 99 46 0.0 5.0 0.00 0.00 0.00 38 1012.9
20220817185141 99 359 0.0 3.0 0.00 0.00 0.00 37 1012.9
20220817184637 99 298 0.0 4.0 0.00 0.00 0.00 37 1012.9
20220817184216 98 27 0.0 5.0 0.00 0.00 0.00 38 1013.0
20220817184133 98 27 0.0 5.0 0.00 0.00 0.00 38 1013.0
20220817183713 98 308 1.0 9.0 0.00 0.00 0.00 39 1013.1
20220817183141 98 301 0.0 9.0 0.00 0.00 0.00 38 1013.1
20220817182722 98 310 0.0 5.0 0.00 0.00 0.00 38 1013.1
20220817182639 98 310 0.0 5.0 0.00 0.00 0.00 38 1013.1
20220817182132 97 65 0.0 5.0 0.00 0.00 0.00 39 1013.1
20220817181726 97 331 1.0 7.0 0.00 0.00 0.00 39 1013.2
20220817181143 97 264 1.0 7.0 0.00 0.00 0.00 39 1013.2
20220817180707 97 45 0.0 9.0 0.00 0.00 0.00 39 1013.5
20220817180141 97 355 0.0 9.0 0.00 0.00 0.00 39 1013.5
20220817175627 97 336 0.0 5.0 0.00 0.00 0.00 40 1013.5
20220817175153 96 5 0.0 7.0 0.00 0.00 0.00 41 1013.5
20220817174715 96 358 1.0 7.0 0.00 0.00 0.00 41 1013.6
20220817174633 96 358 1.0 7.0 0.00 0.00 0.00 41 1013.6
20220817174127 96 16 0.0 5.0 0.00 0.00 0.00 40 1013.7
20220817173713 96 347 0.0 2.0 0.00 0.00 0.00 41 1013.7
20220817173630 96 347 0.0 2.0 0.00 0.00 0.00 41 1013.7
20220817173134 96 7 0.0 6.0 0.00 0.00 0.00 40 1013.8
20220817172647 96 318 2.0 6.0 0.00 0.00 0.00 41 1013.9
20220817172141 96 297 1.0 4.0 0.00 0.00 0.00 39 1013.9
20220817171634 95 304 0.0 3.0 0.00 0.00 0.00 41 1013.9
20220817171225 95 285 0.0 3.0 0.00 0.00 0.00 40 1014.1
20220817171142 95 285 0.0 3.0 0.00 0.00 0.00 40 1014.1
20220817170658 95 342 0.0 4.0 0.00 0.00 0.00 40 1014.1
20220817170154 94 314 0.0 10.0 0.00 0.00 0.00 41 1014.1
20220817165643 94 259 1.0 10.0 0.00 0.00 0.00 40 1014.1
20220817165202 95 289 0.0 1.0 0.00 0.00 0.00 40 1014.3
20220817164715 94 56 0.0 2.0 0.00 0.00 0.00 41 1014.2
20220817164633 94 56 0.0 2.0 0.00 0.00 0.00 41 1014.2
20220817164209 94 83 0.0 4.0 0.00 0.00 0.00 41 1014.3
20220817163709 94 308 0.0 6.0 0.00 0.00 0.00 40 1014.3
20220817163205 94 354 0.0 6.0 0.00 0.00 0.00 40 1014.4
20220817163122 94 354 0.0 6.0 0.00 0.00 0.00 40 1014.4
20220817162727 94 318 0.0 3.0 0.00 0.00 0.00 40 1014.4
20220817162208 94 298 0.0 3.0 0.00 0.00 0.00 41 1014.4
20220817161726 94 328 0.0 6.0 0.00 0.00 0.00 41 1014.3
20220817161644 94 328 0.0 6.0 0.00 0.00 0.00 41 1014.3
20220817161155 93 260 1.0 6.0 0.00 0.00 0.00 42 1014.2
20220817160640 93 42 0.0 5.0 0.00 0.00 0.00 41 1014.4
20220817160124 93 320 0.0 5.0 0.00 0.00 0.00 42 1014.5
20220817155716 93 18 0.0 0.0 0.00 0.00 0.00 42 1014.4
20220817155633 93 18 0.0 0.0 0.00 0.00 0.00 42 1014.4
20220817155207 92 20 0.0 9.0 0.00 0.00 0.00 43 1014.5
20220817155124 92 20 0.0 9.0 0.00 0.00 0.00 43 1014.5
20220817154653 92 358 0.0 9.0 0.00 0.00 0.00 43 1014.4
20220817154145 92 310 0.0 1.0 0.00 0.00 0.00 43 1014.4
20220817153700 92 308 0.0 6.0 0.00 0.00 0.00 43 1014.3
20220817153131 92 296 0.0 6.0 0.00 0.00 0.00 42 1014.2
20220817152653 92 280 2.0 6.0 0.00 0.00 0.00 42 1014.2
20220817152134 91 295 0.0 6.0 0.00 0.00 0.00 43 1014.3
20220817151708 91 347 0.0 9.0 0.00 0.00 0.00 42 1014.3
20220817151625 91 347 0.0 9.0 0.00 0.00 0.00 42 1014.3
20220817151126 91 285 2.0 9.0 0.00 0.00 0.00 42 1014.3
20220817150713 91 310 0.0 7.0 0.00 0.00 0.00 43 1014.3
20220817150121 91 283 1.0 5.0 0.00 0.00 0.00 44 1014.3
20220817145647 90 289 0.0 5.0 0.00 0.00 0.00 44 1014.3
20220817145210 90 274 1.0 5.0 0.00 0.00 0.00 45 1014.3
20220817145127 90 274 1.0 5.0 0.00 0.00 0.00 45 1014.3
20220817144656 89 275 0.0 10.0 0.00 0.00 0.00 45 1014.3
20220817144235 89 293 2.0 10.0 0.00 0.00 0.00 46 1014.3
20220817144153 89 293 2.0 10.0 0.00 0.00 0.00 46 1014.3
20220817143642 89 284 0.0 10.0 0.00 0.00 0.00 46 1014.3
20220817143159 88 296 1.0 7.0 0.00 0.00 0.00 47 1014.3
20220817142713 88 290 1.0 7.0 0.00 0.00 0.00 48 1014.5
20220817142630 88 290 1.0 7.0 0.00 0.00 0.00 48 1014.5
20220817142132 88 277 2.0 11.0 0.00 0.00 0.00 49 1014.4
20220817141707 87 290 2.0 11.0 0.00 0.00 0.00 50 1014.3
20220817141625 87 290 2.0 11.0 0.00 0.00 0.00 50 1014.3
20220817141223 87 314 0.0 5.0 0.00 0.00 0.00 51 1014.2
20220817140641 86 310 0.0 5.0 0.00 0.00 0.00 52 1014.1
20220817140201 86 291 0.0 4.0 0.00 0.00 0.00 52 1014.2
20220817135642 85 292 1.0 4.0 0.00 0.00 0.00 54 1014.2
20220817135218 85 285 0.0 2.0 0.00 0.00 0.00 54 1014.2
20220817134711 85 284 0.0 3.0 0.00 0.00 0.00 54 1014.2
20220817134206 85 249 0.0 3.0 0.00 0.00 0.00 55 1014.1
20220817133724 84 297 0.0 2.0 0.00 0.00 0.00 55 1014.0
20220817133200 84 289 0.0 4.0 0.00 0.00 0.00 56 1014.0
20220817132649 84 293 0.0 4.0 0.00 0.00 0.00 56 1014.0
20220817132148 84 283 0.0 1.0 0.00 0.00 0.00 57 1014.0
20220817131629 83 271 0.0 0.0 0.00 0.00 0.00 58 1014.0
20220817131149 83 266 0.0 0.0 0.00 0.00 0.00 59 1013.9
20220817130633 82 262 0.0 0.0 0.00 0.00 0.00 60 1013.9
20220817130134 82 243 0.0 0.0 0.00 0.00 0.00 61 1013.8
20220817125644 81 239 0.0 0.0 0.00 0.00 0.00 62 1013.7
20220817125123 81 231 0.0 0.0 0.00 0.00 0.00 62 1013.7
20220817124731 82 220 0.0 0.0 0.00 0.00 0.00 62 1013.7
20220817124649 82 220 0.0 0.0 0.00 0.00 0.00 62 1013.7
20220817124145 82 219 0.0 0.0 0.00 0.00 0.00 60 1013.6
20220817123643 81 219 0.0 0.0 0.00 0.00 0.00 60 1013.6
20220817123158 81 219 0.0 0.0 0.00 0.00 0.00 61 1013.5
20220817122653 81 219 0.0 0.0 0.00 0.00 0.00 60 1013.5
20220817122206 81 220 0.0 0.0 0.00 0.00 0.00 61 1013.3
20220817122124 81 220 0.0 0.0 0.00 0.00 0.00 61 1013.3
20220817121732 81 220 0.0 0.0 0.00 0.00 0.00 60 1013.2
20220817121650 81 220 0.0 0.0 0.00 0.00 0.00 60 1013.2
20220817121125 81 220 0.0 0.0 0.00 0.00 0.00 60 1013.1
20220817120649 81 220 0.0 0.0 0.00 0.00 0.00 60 1013.0
20220817120144 81 220 0.0 0.0 0.00 0.00 0.00 59 1013.1
20220817115643 81 220 0.0 0.0 0.00 0.00 0.00 59 1013.0
20220817115128 81 220 0.0 0.0 0.00 0.00 0.00 59 1012.8
20220817114647 81 220 0.0 0.0 0.00 0.00 0.00 59 1012.8
20220817114142 81 220 0.0 0.0 0.00 0.00 0.00 58 1012.8
20220817113620 81 220 0.0 0.0 0.00 0.00 0.00 59 1012.7
20220817113204 81 220 0.0 0.0 0.00 0.00 0.00 60 1012.7
20220817112727 81 220 0.0 0.0 0.00 0.00 0.00 60 1012.8
20220817112206 81 220 0.0 0.0 0.00 0.00 0.00 59 1012.6
20220817112124 81 220 0.0 0.0 0.00 0.00 0.00 59 1012.6
20220817111704 81 220 0.0 0.0 0.00 0.00 0.00 62 1012.6
20220817111211 81 220 0.0 0.0 0.00 0.00 0.00 61 1012.5
20220817110713 81 220 0.0 0.0 0.00 0.00 0.00 59 1012.3
20220817110207 81 220 0.0 0.0 0.00 0.00 0.00 60 1012.3
20220817105641 82 220 0.0 0.0 0.00 0.00 0.00 58 1012.1
20220817105206 82 220 0.0 0.0 0.00 0.00 0.00 57 1012.0
20220817104648 82 220 0.0 0.0 0.00 0.00 0.00 57 1012.0
20220817104140 82 221 0.0 0.0 0.00 0.00 0.00 57 1012.0
20220817103715 82 222 0.0 0.0 0.00 0.00 0.00 57 1011.9
20220817103208 82 222 0.0 0.0 0.00 0.00 0.00 58 1012.0
20220817102644 81 223 0.0 0.0 0.00 0.00 0.00 58 1011.9
20220817102211 81 223 0.0 0.0 0.00 0.00 0.00 60 1011.9
20220817102128 81 223 0.0 0.0 0.00 0.00 0.00 60 1011.9
20220817101624 80 223 0.0 0.0 0.00 0.00 0.00 60 1011.9
20220817101153 80 223 0.0 0.0 0.00 0.00 0.00 60 1011.9
20220817100708 81 223 0.0 0.0 0.00 0.00 0.00 58 1011.9
20220817100204 82 223 0.0 0.0 0.00 0.00 0.00 58 1011.8
20220817095640 82 223 0.0 0.0 0.00 0.00 0.00 58 1011.9
20220817095212 82 223 0.0 0.0 0.00 0.00 0.00 58 1012.0
20220817095129 82 223 0.0 0.0 0.00 0.00 0.00 58 1012.0
20220817094647 81 223 0.0 0.0 0.00 0.00 0.00 58 1011.8
20220817094126 81 223 0.0 0.0 0.00 0.00 0.00 59 1011.8
20220817093622 81 223 0.0 0.0 0.00 0.00 0.00 58 1011.8
20220817093124 80 223 0.0 0.0 0.00 0.00 0.00 61 1011.7
20220817092649 80 223 0.0 0.0 0.00 0.00 0.00 63 1011.6
20220817092152 81 223 0.0 0.0 0.00 0.00 0.00 58 1011.8
20220817091641 82 223 0.0 0.0 0.00 0.00 0.00 58 1011.7
20220817091216 82 223 0.0 0.0 0.00 0.00 0.00 59 1011.8
20220817090655 82 223 0.0 0.0 0.00 0.00 0.00 57 1011.7
20220817090138 82 223 0.0 0.0 0.00 0.00 0.00 57 1011.6
20220817085738 82 223 0.0 0.0 0.00 0.00 0.00 56 1011.6
20220817085136 82 223 0.0 0.0 0.00 0.00 0.00 56 1011.7
20220817084712 82 223 0.0 0.0 0.00 0.00 0.00 57 1011.7
20220817084141 81 223 0.0 0.0 0.00 0.00 0.00 58 1011.6
20220817083649 81 224 0.0 0.0 0.00 0.00 0.00 58 1011.6
20220817083213 81 227 0.0 0.0 0.00 0.00 0.00 58 1011.5
20220817083131 81 227 0.0 0.0 0.00 0.00 0.00 58 1011.5
20220817082724 81 212 0.0 0.0 0.00 0.00 0.00 59 1011.5
20220817082642 81 212 0.0 0.0 0.00 0.00 0.00 59 1011.5
20220817082220 81 222 0.0 0.0 0.00 0.00 0.00 59 1011.6
20220817081652 81 225 0.0 0.0 0.00 0.00 0.00 58 1011.6
20220817081145 81 227 0.0 0.0 0.00 0.00 0.00 59 1011.6
20220817080641 81 224 0.0 0.0 0.00 0.00 0.00 59 1011.5
20220817080208 82 226 0.0 0.0 0.00 0.00 0.00 57 1011.5
20220817080126 82 226 0.0 0.0 0.00 0.00 0.00 57 1011.5
20220817075624 84 224 0.0 0.0 0.00 0.00 0.00 53 1011.6
20220817075210 84 224 0.0 0.0 0.00 0.00 0.00 51 1011.6
20220817075127 84 224 0.0 0.0 0.00 0.00 0.00 51 1011.6
20220817074710 84 224 0.0 0.0 0.00 0.00 0.00 51 1011.5
20220817074207 84 227 0.0 0.0 0.00 0.00 0.00 51 1011.6
20220817073623 84 229 0.0 0.0 0.00 0.00 0.00 51 1011.6
20220817073127 84 219 0.0 0.0 0.00 0.00 0.00 51 1011.6
20220817072654 84 218 0.0 0.0 0.00 0.00 0.00 51 1011.6
20220817072214 84 217 0.0 0.0 0.00 0.00 0.00 51 1011.6
20220817072132 84 217 0.0 0.0 0.00 0.00 0.00 51 1011.6
20220817071628 84 217 0.0 0.0 0.00 0.00 0.00 50 1011.6
20220817071205 84 217 0.0 0.0 0.00 0.00 0.00 51 1011.6
20220817070224 85 210 0.0 0.0 0.00 0.00 0.00 50 1011.5
20220817070142 85 210 0.0 0.0 0.00 0.00 0.00 50 1011.5
20220817065718 85 209 0.0 0.0 0.00 0.00 0.00 50 1011.6
20220817065636 85 209 0.0 0.0 0.00 0.00 0.00 50 1011.6
20220817065128 86 208 0.0 0.0 0.00 0.00 0.00 48 1011.6
20220817064726 86 208 0.0 0.0 0.00 0.00 0.00 49 1011.6
20220817064137 86 208 0.0 0.0 0.00 0.00 0.00 48 1011.6
20220817063712 87 208 0.0 0.0 0.00 0.00 0.00 47 1011.5
20220817063131 87 208 0.0 0.0 0.00 0.00 0.00 46 1011.6
20220817062632 87 206 0.0 0.0 0.00 0.00 0.00 46 1011.6
20220817062132 87 204 0.0 0.0 0.00 0.00 0.00 45 1011.6
20220817061623 87 204 0.0 0.0 0.00 0.00 0.00 45 1011.6
20220817061211 88 204 0.0 0.0 0.00 0.00 0.00 44 1011.6
20220817061128 88 204 0.0 0.0 0.00 0.00 0.00 44 1011.6
20220817060652 88 197 0.0 0.0 0.00 0.00 0.00 44 1011.5
20220817060120 88 212 0.0 0.0 0.00 0.00 0.00 43 1011.6
20220817055644 89 212 0.0 2.0 0.00 0.00 0.00 43 1011.6
20220817055205 89 214 0.0 2.0 0.00 0.00 0.00 43 1011.6
20220817054628 89 211 0.0 3.0 0.00 0.00 0.00 43 1011.6
20220817054203 89 197 1.0 6.0 0.00 0.00 0.00 43 1011.6
20220817053724 89 196 1.0 6.0 0.00 0.00 0.00 42 1011.5
20220817053130 89 180 0.0 6.0 0.00 0.00 0.00 42 1011.5
20220817052641 89 199 1.0 6.0 0.00 0.00 0.00 42 1011.4
20220817052146 89 179 0.0 7.0 0.00 0.00 0.00 42 1011.4
20220817051708 89 195 2.0 9.0 0.00 0.00 0.00 42 1011.4
20220817051626 89 195 2.0 9.0 0.00 0.00 0.00 42 1011.4
20220817051146 89 206 1.0 9.0 0.00 0.00 0.00 42 1011.3
20220817050709 90 195 0.0 2.0 0.00 0.00 0.00 42 1011.3
20220817050213 90 185 0.0 6.0 0.00 0.00 0.00 41 1011.2
20220817045706 90 214 0.0 6.0 0.00 0.00 0.00 41 1011.2
20220817045624 90 214 0.0 6.0 0.00 0.00 0.00 41 1011.2